RESURS
1 25394U 98043A   06068.44517541 -.00000035  00000-0  30880-5 0  3197
2 25394 098.5032 134.6533 0002342 099.6911 260.4533 14.24095763398209
FENGYUN1
1 25730U 99025A   06067.55620655 -.00000076  00000-0 -18544-4 0  6689
2 25730 098.6223 063.9302 0015387 067.8933 292.3872 14.11806678351815
OKEAN-0
1 25860U 99039A   06068.64972570  .00000034  00000-0  12527-4 0  6884
2 25860 097.7396 087.5938 0001895 074.1202 286.0209 14.73342016357095
NOAA-16
1 26536U 00055A   06068.18469053  .00000016  00000-0  33290-4 0  7837
2 26536 099.0554 033.6873 0011358 043.4616 316.7480 14.12320109281461
NOAA-17
1 27453U 02032A   06068.44979266  .00000232  00000-0  12061-3 0  8062
2 27453 098.6293 142.5695 0011670 009.8940 350.2568 14.23757367192586
NOAA-18
1 28654U 05018A   06068.21897849 -.00000164  00000-0 -67310-4 0  3939
2 28654 098.7778 013.6848 0014610 141.2646 218.9577 14.10935351 41285
HUBBLE
1 20580U 90037B   06067.89383412  .00000450  00000-0  22272-4 0  5625
2 20580 028.4699 343.6609 0004122 199.2133 160.8349 14.99977291670027
UARS
1 21701U 91063B   06068.42013991  .00003544  00000-0  74212-4 0  7072
2 21701 056.9779 162.0792 0109130 021.2939 339.2566 15.42339884793902
PO-34
1 25520U 98064B   06067.93415956  .00000513  00000-0  15735-4 0 04115
2 25520 028.4596 341.7941 0005468 225.1659 134.8492 15.16629110406814
ISS
1 25544U 98067A   06069.02886057  .00018161  00000-0  12751-3 0  4954
2 25544 051.6452 337.6204 0008763 346.5237 119.5535 15.74209211417535
OO-38
1 26063U 00004C   06068.22209752 -.00000024  00000-0  11873-4 0  5638
2 26063 100.1871 341.2777 0037241 029.3107 331.0160 14.35755947320321
NO-45
1 26932U 01043D   06067.89620500  .00000099  00000-0  70813-4 0 02601
2 26932 067.0575 265.6930 0007634 284.0791 075.9429 14.29518505231637
UWE-1
1 28892U 05043C   06067.74918864  .00000180  00000-0  47789-4 0  3911
2 28892 098.1735 327.5390 0018240 122.3909 237.9062 14.59313205 19321
XI-V
1 28895U 05043F   06068.70400058  .00000177  00000-0  47139-4 0  3759
2 28895 098.1752 328.5245 0018823 119.6607 240.6458 14.59369278 19347
NCUBE2
1 28897U 05043H   06068.00619342  .00000156  00000-0  42610-4 0   384
2 28897 098.1757 327.8371 0018089 122.0381 238.2577 14.59521956 11516
AO-54
1 28933U 05035C   06068.21676081  .00039788  00000-0  24213-3 0   439
2 28933 051.6415 341.4119 0007557 016.4036 343.7376 15.77012921  5245
